Time,TemperatureF,DewpointF,PressureIn,WindDirection,WindDirectionDegrees,WindSpeedMPH,WindSpeedGustMPH,Humidity,HourlyPrecipIn,Conditions,Clouds,dailyrainin,SoftwareType,DateUTC
2013-10-01 00:05:00,52.2,51.6,30.04,North,0,0.0,-999.0,98,-99.99,,,0.00,Acu-Link.com,2013-10-01 04:05:00,
2013-10-01 00:20:00,52.2,51.6,30.04,North,0,0.0,-999.0,98,-99.99,,,0.00,Acu-Link.com,2013-10-01 04:20:00,
2013-10-01 00:35:00,51.8,51.3,30.03,North,0,0.0,-999.0,98,-99.99,,,0.00,Acu-Link.com,2013-10-01 04:35:00,
2013-10-01 00:51:00,51.8,51.3,30.03,North,0,0.0,-999.0,98,-99.99,,,0.00,Acu-Link.com,2013-10-01 04:51:00,
2013-10-01 01:06:00,51.6,51.1,30.03,North,0,0.0,-999.0,98,-99.99,,,0.00,Acu-Link.com,2013-10-01 05:06:00,
2013-10-01 01:21:00,51.4,50.9,30.03,North,0,0.0,-999.0,98,-99.99,,,0.00,Acu-Link.com,2013-10-01 05:21:00,
2013-10-01 01:36:00,51.3,50.7,30.03,North,0,0.0,-999.0,98,-99.99,,,0.00,Acu-Link.com,2013-10-01 05:36:00,
2013-10-01 01:51:00,51.3,50.7,30.04,North,0,0.0,-999.0,98,-99.99,,,0.00,Acu-Link.com,2013-10-01 05:51:00,
2013-10-01 02:07:00,51.6,51.1,30.03,North,0,0.0,-999.0,98,-99.99,,,0.00,Acu-Link.com,2013-10-01 06:07:00,
2013-10-01 02:22:00,51.8,51.3,30.03,North,0,0.0,-999.0,98,-99.99,,,0.00,Acu-Link.com,2013-10-01 06:22:00,
2013-10-01 02:37:00,51.8,51.3,30.03,North,0,0.0,-999.0,98,-99.99,,,0.00,Acu-Link.com,2013-10-01 06:37:00,
2013-10-01 02:52:00,51.8,51.3,30.02,North,0,0.0,-999.0,98,-99.99,,,0.00,Acu-Link.com,2013-10-01 06:52:00,
2013-10-01 03:07:00,51.4,50.9,30.02,North,0,0.0,-999.0,98,-99.99,,,0.00,Acu-Link.com,2013-10-01 07:07:00,
2013-10-01 03:23:00,51.4,50.9,30.02,North,0,0.0,-999.0,98,-99.99,,,0.00,Acu-Link.com,2013-10-01 07:23:00,
2013-10-01 03:38:00,51.6,51.1,30.02,North,0,0.0,-999.0,98,-99.99,,,0.00,Acu-Link.com,2013-10-01 07:38:00,
2013-10-01 03:53:00,51.8,51.3,30.02,North,0,0.0,-999.0,98,-99.99,,,0.00,Acu-Link.com,2013-10-01 07:53:00,
2013-10-01 04:09:00,51.8,51.3,30.02,North,0,0.0,-999.0,98,-99.99,,,0.00,Acu-Link.com,2013-10-01 08:09:00,
2013-10-01 04:24:00,52.2,51.6,30.02,North,0,0.0,-999.0,98,-99.99,,,0.00,Acu-Link.com,2013-10-01 08:24:00,
2013-10-01 04:39:00,52.2,51.6,30.02,North,0,0.0,-999.0,98,-99.99,,,0.00,Acu-Link.com,2013-10-01 08:39:00,
2013-10-01 04:55:00,52.3,51.8,30.02,North,0,0.0,-999.0,98,-99.99,,,0.00,Acu-Link.com,2013-10-01 08:55:00,
2013-10-01 05:10:00,52.5,52.0,30.02,North,0,0.0,-999.0,98,-99.99,,,0.00,Acu-Link.com,2013-10-01 09:10:00,
2013-10-01 05:26:00,52.5,52.0,30.03,North,0,0.0,-999.0,98,-99.99,,,0.00,Acu-Link.com,2013-10-01 09:26:00,
2013-10-01 05:41:00,52.5,52.0,30.02,North,0,0.0,-999.0,98,-99.99,,,0.00,Acu-Link.com,2013-10-01 09:41:00,
2013-10-01 05:57:00,52.5,52.0,30.03,North,0,0.0,-999.0,98,-99.99,,,0.00,Acu-Link.com,2013-10-01 09:57:00,
2013-10-01 06:12:00,52.5,52.0,30.03,North,0,0.0,-999.0,98,-99.99,,,0.00,Acu-Link.com,2013-10-01 10:12:00,
2013-10-01 06:28:00,52.7,52.2,30.02,North,0,0.0,-999.0,98,-99.99,,,0.00,Acu-Link.com,2013-10-01 10:28:00,
2013-10-01 06:43:00,52.9,52.3,30.03,North,0,0.0,-999.0,98,-99.99,,,0.00,Acu-Link.com,2013-10-01 10:43:00,
2013-10-01 06:58:00,53.1,52.5,30.03,North,0,0.0,-999.0,98,-99.99,,,0.00,Acu-Link.com,2013-10-01 10:58:00,
2013-10-01 07:13:00,53.2,52.7,30.03,North,0,0.0,-999.0,98,-99.99,,,0.00,Acu-Link.com,2013-10-01 11:13:00,
2013-10-01 07:44:00,53.6,53.0,30.02,North,0,0.0,-999.0,98,-99.99,,,0.00,Acu-Link.com,2013-10-01 11:44:00,
2013-10-01 07:59:00,53.6,53.0,30.02,North,0,0.0,-999.0,98,-99.99,,,0.00,Acu-Link.com,2013-10-01 11:59:00,
2013-10-01 08:14:00,54.0,53.4,30.03,North,0,0.0,-999.0,98,-99.99,,,0.00,Acu-Link.com,2013-10-01 12:14:00,
2013-10-01 08:30:00,55.4,54.8,30.02,North,0,0.0,-999.0,98,-99.99,,,0.00,Acu-Link.com,2013-10-01 12:30:00,
2013-10-01 08:45:00,55.9,55.4,30.03,North,0,0.0,-999.0,98,-99.99,,,0.00,Acu-Link.com,2013-10-01 12:45:00,
2013-10-01 09:00:00,56.5,55.9,30.03,North,0,0.0,-999.0,98,-99.99,,,0.00,Acu-Link.com,2013-10-01 13:00:00,
2013-10-01 09:15:00,57.0,56.5,30.02,North,0,0.0,-999.0,98,-99.99,,,0.00,Acu-Link.com,2013-10-01 13:15:00,
2013-10-01 09:31:00,57.6,57.0,30.02,North,0,0.0,-999.0,98,-99.99,,,0.00,Acu-Link.com,2013-10-01 13:31:00,
2013-10-01 09:46:00,59.2,57.5,30.03,North,0,0.0,-999.0,94,-99.99,,,0.00,Acu-Link.com,2013-10-01 13:46:00,
2013-10-01 10:01:00,60.8,58.2,30.02,SSW,202,0.0,-999.0,91,-99.99,,,0.00,Acu-Link.com,2013-10-01 14:01:00,
2013-10-01 10:16:00,61.9,58.6,30.01,WSW,247,0.0,-999.0,89,-99.99,,,0.00,Acu-Link.com,2013-10-01 14:16:00,
2013-10-01 10:31:00,63.9,58.9,30.01,SSE,157,0.0,-999.0,84,-99.99,,,0.00,Acu-Link.com,2013-10-01 14:31:00,
2013-10-01 10:47:00,66.2,60.9,30.01,SSW,202,0.0,-999.0,83,-99.99,,,0.00,Acu-Link.com,2013-10-01 14:47:00,
2013-10-01 11:02:00,66.0,61.4,30.01,SSW,202,2.2,-999.0,85,-99.99,,,0.00,Acu-Link.com,2013-10-01 15:02:00,
2013-10-01 11:17:00,68.2,61.8,30.01,SW,225,1.6,-999.0,80,-99.99,,,0.00,Acu-Link.com,2013-10-01 15:17:00,
2013-10-01 11:32:00,68.5,59.5,30.00,SSW,202,1.6,-999.0,73,-99.99,,,0.00,Acu-Link.com,2013-10-01 15:32:00,
2013-10-01 11:47:00,71.4,61.1,29.99,ESE,112,0.0,-999.0,70,-99.99,,,0.00,Acu-Link.com,2013-10-01 15:47:00,
2013-10-01 12:03:00,72.0,60.4,29.98,SSW,202,1.6,-999.0,67,-99.99,,,0.00,Acu-Link.com,2013-10-01 16:03:00,
2013-10-01 12:18:00,72.5,60.5,29.98,SSW,202,1.6,-999.0,66,-99.99,,,0.00,Acu-Link.com,2013-10-01 16:18:00,
2013-10-01 12:33:00,72.0,60.0,29.98,SW,225,2.2,-999.0,66,-99.99,,,0.00,Acu-Link.com,2013-10-01 16:33:00,
2013-10-01 12:48:00,72.3,60.3,29.98,SW,225,3.8,-999.0,66,-99.99,,,0.00,Acu-Link.com,2013-10-01 16:48:00,
2013-10-01 13:03:00,73.4,60.5,29.96,SW,225,2.2,-999.0,64,-99.99,,,0.00,Acu-Link.com,2013-10-01 17:03:00,
2013-10-01 13:18:00,71.6,60.0,29.96,East,90,0.0,-999.0,67,-99.99,,,0.00,Acu-Link.com,2013-10-01 17:18:00,
2013-10-01 13:33:00,72.0,60.0,29.95,SSW,202,2.7,-999.0,66,-99.99,,,0.00,Acu-Link.com,2013-10-01 17:33:00,
2013-10-01 13:49:00,72.0,60.4,29.95,WSW,247,2.7,-999.0,67,-99.99,,,0.00,Acu-Link.com,2013-10-01 17:49:00,
2013-10-01 14:04:00,72.5,60.5,29.95,WSW,247,2.2,-999.0,66,-99.99,,,0.00,Acu-Link.com,2013-10-01 18:04:00,
2013-10-01 14:19:00,72.5,60.1,29.95,SSW,202,3.8,-999.0,65,-99.99,,,0.00,Acu-Link.com,2013-10-01 18:19:00,
2013-10-01 14:34:00,73.0,59.7,29.94,SE,135,1.1,-999.0,63,-99.99,,,0.00,Acu-Link.com,2013-10-01 18:34:00,
2013-10-01 14:49:00,72.5,58.7,29.94,SSW,202,2.7,-999.0,62,-99.99,,,0.00,Acu-Link.com,2013-10-01 18:49:00,
2013-10-01 15:05:00,71.6,58.8,29.93,SW,225,1.6,-999.0,64,-99.99,,,0.00,Acu-Link.com,2013-10-01 19:05:00,
2013-10-01 15:20:00,70.9,58.9,29.92,WSW,247,0.0,-999.0,66,-99.99,,,0.00,Acu-Link.com,2013-10-01 19:20:00,
2013-10-01 15:35:00,70.9,59.4,29.93,WSW,247,1.6,-999.0,67,-99.99,,,0.00,Acu-Link.com,2013-10-01 19:35:00,
2013-10-01 15:50:00,71.2,58.4,29.93,SW,225,2.7,-999.0,64,-99.99,,,0.00,Acu-Link.com,2013-10-01 19:50:00,
2013-10-01 16:05:00,70.3,58.9,29.93,SSW,202,0.0,-999.0,67,-99.99,,,0.00,Acu-Link.com,2013-10-01 20:05:00,
2013-10-01 16:21:00,70.3,58.4,29.92,WSW,247,3.8,-999.0,66,-99.99,,,0.00,Acu-Link.com,2013-10-01 20:21:00,
2013-10-01 16:36:00,69.8,58.3,29.92,WSW,247,0.0,-999.0,67,-99.99,,,0.00,Acu-Link.com,2013-10-01 20:36:00,
2013-10-01 16:51:00,69.4,58.0,29.91,WSW,247,0.0,-999.0,67,-99.99,,,0.00,Acu-Link.com,2013-10-01 20:51:00,
2013-10-01 17:06:00,68.5,58.0,29.91,SW,225,0.0,-999.0,69,-99.99,,,0.00,Acu-Link.com,2013-10-01 21:06:00,
2013-10-01 17:21:00,68.4,57.8,29.91,SSW,202,1.6,-999.0,69,-99.99,,,0.00,Acu-Link.com,2013-10-01 21:21:00,
2013-10-01 17:37:00,67.8,57.7,29.91,SSW,202,1.1,-999.0,70,-99.99,,,0.00,Acu-Link.com,2013-10-01 21:37:00,
2013-10-01 17:52:00,67.1,58.1,29.91,SW,225,0.0,-999.0,73,-99.99,,,0.00,Acu-Link.com,2013-10-01 21:52:00,
2013-10-01 18:07:00,66.4,57.8,29.91,SW,225,1.1,-999.0,74,-99.99,,,0.00,Acu-Link.com,2013-10-01 22:07:00,
2013-10-01 18:22:00,65.3,57.9,29.92,South,180,0.0,-999.0,77,-99.99,,,0.00,Acu-Link.com,2013-10-01 22:22:00,
2013-10-01 18:37:00,64.0,57.0,29.92,NNW,337,0.0,-999.0,78,-99.99,,,0.00,Acu-Link.com,2013-10-01 22:37:00,
2013-10-01 18:53:00,63.0,57.0,29.92,NNW,337,0.0,-999.0,81,-99.99,,,0.00,Acu-Link.com,2013-10-01 22:53:00,
2013-10-01 19:08:00,62.2,56.7,29.91,NNW,337,0.0,-999.0,82,-99.99,,,0.00,Acu-Link.com,2013-10-01 23:08:00,
2013-10-01 19:23:00,62.1,56.5,29.92,NNW,337,0.0,-999.0,82,-99.99,,,0.00,Acu-Link.com,2013-10-01 23:23:00,
2013-10-01 19:38:00,61.3,56.1,29.92,NNW,337,0.0,-999.0,83,-99.99,,,0.00,Acu-Link.com,2013-10-01 23:38:00,
2013-10-01 19:53:00,60.8,55.9,29.92,NNW,337,0.0,-999.0,84,-99.99,,,0.00,Acu-Link.com,2013-10-01 23:53:00,
2013-10-01 20:09:00,60.1,55.9,29.92,NNW,337,0.0,-999.0,86,-99.99,,,0.00,Acu-Link.com,2013-10-02 00:09:00,
2013-10-01 20:24:00,59.5,56.0,29.93,NNW,337,0.0,-999.0,88,-99.99,,,0.00,Acu-Link.com,2013-10-02 00:24:00,
2013-10-01 20:39:00,58.8,56.2,29.92,NNW,337,0.0,-999.0,91,-99.99,,,0.00,Acu-Link.com,2013-10-02 00:39:00,
2013-10-01 20:54:00,59.0,56.1,29.91,NNW,337,0.0,-999.0,90,-99.99,,,0.00,Acu-Link.com,2013-10-02 00:54:00,
2013-10-01 21:09:00,58.8,56.2,29.91,NNW,337,0.0,-999.0,91,-99.99,,,0.00,Acu-Link.com,2013-10-02 01:09:00,
2013-10-01 21:25:00,59.0,55.8,29.90,NNW,337,0.0,-999.0,89,-99.99,,,0.00,Acu-Link.com,2013-10-02 01:25:00,
2013-10-01 21:40:00,59.4,55.8,29.90,NNW,337,0.0,-999.0,88,-99.99,,,0.00,Acu-Link.com,2013-10-02 01:40:00,
2013-10-01 21:55:00,59.2,55.6,29.90,NNW,337,0.0,-999.0,88,-99.99,,,0.00,Acu-Link.com,2013-10-02 01:55:00,
2013-10-01 22:10:00,59.2,55.6,29.90,NNW,337,0.0,-999.0,88,-99.99,,,0.00,Acu-Link.com,2013-10-02 02:10:00,
2013-10-01 22:25:00,58.8,55.6,29.90,NNW,337,0.0,-999.0,89,-99.99,,,0.00,Acu-Link.com,2013-10-02 02:25:00,
2013-10-01 22:41:00,58.3,56.0,29.89,NNW,337,0.0,-999.0,92,-99.99,,,0.00,Acu-Link.com,2013-10-02 02:41:00,
2013-10-01 22:56:00,58.1,55.8,29.89,NNW,337,0.0,-999.0,92,-99.99,,,0.00,Acu-Link.com,2013-10-02 02:56:00,
2013-10-01 23:11:00,57.9,55.9,29.89,NNW,337,0.0,-999.0,93,-99.99,,,0.00,Acu-Link.com,2013-10-02 03:11:00,
2013-10-01 23:26:00,57.2,56.4,29.89,NNW,337,0.0,-999.0,97,-99.99,,,0.00,Acu-Link.com,2013-10-02 03:26:00,
2013-10-01 23:41:00,56.7,56.1,29.89,NNW,337,0.0,-999.0,98,-99.99,,,0.00,Acu-Link.com,2013-10-02 03:41:00,
2013-10-01 23:57:00,55.9,55.4,29.88,NNW,337,0.0,-999.0,98,-99.99,,,0.00,Acu-Link.com,2013-10-02 03:57:00,